| time (UTC) | temp F | wind direction | speed MPH | gust MPH | rain 1hr in | rain 24hr in | rain mn in | humidity % | barometer mb |
| 20260507115430 | 56 | 178 | 9.0 | 16.0 | 0.00 | 0.00 | 0.00 | 64 | 1015.3 |
| 20260507114429 | 57 | 190 | 9.0 | 19.0 | 0.00 | 0.00 | 0.00 | 61 | 1015.3 |
| 20260507113931 | 56 | 154 | 6.0 | 18.0 | 0.00 | 0.00 | 0.00 | 65 | 1015.3 |
| 20260507113433 | 56 | 185 | 10.0 | 18.0 | 0.00 | 0.00 | 0.00 | 64 | 1015.2 |
| 20260507112430 | 53 | 196 | 11.0 | 17.0 | 0.00 | 0.00 | 0.00 | 71 | 1015.3 |
| 20260507111933 | 53 | 202 | 8.0 | 17.0 | 0.00 | 0.00 | 0.00 | 72 | 1015.3 |
| 20260507110931 | 52 | 227 | 5.0 | 16.0 | 0.00 | 0.00 | 0.00 | 74 | 1015.3 |
| 20260507110431 | 51 | 186 | 8.0 | 16.0 | 0.00 | 0.00 | 0.00 | 74 | 1015.5 |
| 20260507105932 | 51 | 228 | 6.0 | 16.0 | 0.00 | 0.00 | 0.00 | 75 | 1015.5 |
| 20260507105433 | 51 | 185 | 9.0 | 16.0 | 0.00 | 0.00 | 0.00 | 76 | 1015.5 |
| 20260507104934 | 51 | 228 | 6.0 | 15.0 | 0.00 | 0.00 | 0.00 | 75 | 1015.5 |
| 20260507104430 | 50 | 200 | 6.0 | 15.0 | 0.00 | 0.00 | 0.00 | 75 | 1015.6 |
| 20260507103931 | 50 | 193 | 7.0 | 12.0 | 0.00 | 0.00 | 0.00 | 76 | 1015.6 |
| 20260507103431 | 51 | 216 | 6.0 | 15.0 | 0.00 | 0.00 | 0.00 | 75 | 1015.6 |
| 20260507102931 | 50 | 166 | 9.0 | 19.0 | 0.00 | 0.00 | 0.00 | 75 | 1015.6 |
| 20260507102432 | 51 | 162 | 6.0 | 19.0 | 0.00 | 0.00 | 0.00 | 75 | 1015.6 |
| 20260507101931 | 51 | 173 | 8.0 | 14.0 | 0.00 | 0.00 | 0.00 | 75 | 1015.5 |
| 20260507101431 | 50 | 175 | 5.0 | 19.0 | 0.00 | 0.00 | 0.00 | 75 | 1015.6 |
| 20260507100931 | 51 | 193 | 9.0 | 21.0 | 0.00 | 0.00 | 0.00 | 74 | 1015.6 |
| 20260507095932 | 50 | 204 | 8.0 | 14.0 | 0.00 | 0.00 | 0.00 | 74 | 1015.7 |
| 20260507095432 | 50 | 231 | 6.0 | 19.0 | 0.00 | 0.00 | 0.00 | 75 | 1015.6 |
| 20260507094933 | 50 | 223 | 10.0 | 19.0 | 0.00 | 0.00 | 0.00 | 75 | 1015.6 |
| 20260507094432 | 49 | 197 | 11.0 | 17.0 | 0.00 | 0.00 | 0.00 | 76 | 1015.6 |
| 20260507093930 | 49 | 213 | 10.0 | 17.0 | 0.00 | 0.00 | 0.00 | 76 | 1015.6 |
| 20260507092930 | 49 | 231 | 11.0 | 16.0 | 0.00 | 0.00 | 0.00 | 77 | 1015.7 |
| 20260507092432 | 49 | 217 | 7.0 | 19.0 | 0.00 | 0.00 | 0.00 | 78 | 1015.6 |
| 20260507091930 | 49 | 162 | 8.0 | 19.0 | 0.00 | 0.00 | 0.00 | 79 | 1015.6 |
| 20260507091433 | 49 | 214 | 6.0 | 17.0 | 0.00 | 0.00 | 0.00 | 79 | 1015.5 |
| 20260507090430 | 49 | 219 | 8.0 | 15.0 | 0.00 | 0.00 | 0.00 | 79 | 1015.7 |
| 20260507085930 | 49 | 173 | 7.0 | 18.0 | 0.00 | 0.00 | 0.00 | 79 | 1015.6 |
| 20260507084931 | 49 | 196 | 7.0 | 15.0 | 0.00 | 0.00 | 0.00 | 79 | 1015.8 |
| 20260507084431 | 49 | 173 | 6.0 | 15.0 | 0.00 | 0.00 | 0.00 | 79 | 1015.8 |
| 20260507083939 | 48 | 189 | 7.0 | 15.0 | 0.00 | 0.00 | 0.00 | 80 | 1015.9 |
| 20260507083432 | 48 | 223 | 4.0 | 15.0 | 0.00 | 0.00 | 0.00 | 79 | 1015.9 |
| 20260507082930 | 48 | 192 | 10.0 | 15.0 | 0.00 | 0.00 | 0.00 | 79 | 1015.9 |
| 20260507082430 | 48 | 219 | 8.0 | 14.0 | 0.00 | 0.00 | 0.00 | 79 | 1015.9 |
| 20260507081933 | 48 | 195 | 4.0 | 17.0 | 0.00 | 0.00 | 0.00 | 78 | 1015.9 |
| 20260507081430 | 48 | 166 | 10.0 | 17.0 | 0.00 | 0.00 | 0.00 | 78 | 1015.9 |
| 20260507080932 | 48 | 171 | 9.0 | 17.0 | 0.00 | 0.00 | 0.00 | 78 | 1015.9 |
| 20260507080432 | 48 | 157 | 7.0 | 14.0 | 0.00 | 0.00 | 0.00 | 79 | 1015.8 |
| 20260507075932 | 48 | 182 | 4.0 | 12.0 | 0.00 | 0.00 | 0.00 | 79 | 1015.8 |
| 20260507075431 | 47 | 227 | 2.0 | 9.0 | 0.00 | 0.00 | 0.00 | 80 | 1015.8 |
| 20260507074932 | 47 | 182 | 4.0 | 11.0 | 0.00 | 0.00 | 0.00 | 79 | 1015.8 |
| 20260507073933 | 47 | 196 | 6.0 | 13.0 | 0.00 | 0.00 | 0.00 | 80 | 1015.8 |
| 20260507072929 | 46 | 155 | 6.0 | 13.0 | 0.00 | 0.00 | 0.00 | 80 | 1015.7 |
| 20260507072432 | 46 | 178 | 5.0 | 14.0 | 0.00 | 0.00 | 0.00 | 81 | 1015.7 |
| 20260507071930 | 46 | 185 | 4.0 | 14.0 | 0.00 | 0.00 | 0.00 | 81 | 1015.8 |
| 20260507071432 | 46 | 172 | 5.0 | 9.0 | 0.00 | 0.00 | 0.00 | 83 | 1015.7 |
| 20260507065929 | 45 | 135 | 5.0 | 13.0 | 0.00 | 0.00 | 0.00 | 85 | 1015.7 |
| 20260507065432 | 45 | 141 | 5.0 | 13.0 | 0.00 | 0.00 | 0.00 | 85 | 1015.7 |
| 20260507064931 | 44 | 169 | 5.0 | 12.0 | 0.00 | 0.00 | 0.00 | 86 | 1015.7 |
| 20260507064432 | 44 | 140 | 5.0 | 12.0 | 0.00 | 0.00 | 0.00 | 89 | 1015.7 |
| 20260507063930 | 44 | 196 | 5.0 | 12.0 | 0.00 | 0.00 | 0.00 | 89 | 1015.8 |
| 20260507063430 | 43 | 179 | 5.0 | 12.0 | 0.00 | 0.00 | 0.00 | 90 | 1015.6 |
| 20260507062931 | 43 | 189 | 2.0 | 8.0 | 0.00 | 0.00 | 0.00 | 91 | 1015.6 |
| 20260507062431 | 42 | 162 | 4.0 | 8.0 | 0.00 | 0.00 | 0.00 | 92 | 1015.6 |
| 20260507061932 | 42 | 68 | 0.0 | 5.0 | 0.00 | 0.00 | 0.00 | 93 | 1015.6 |
| 20260507061430 | 41 | 0 | 1.0 | 5.0 | 0.00 | 0.00 | 0.00 | 93 | 1015.7 |
| 20260507060932 | 41 | 0 | 1.0 | 4.0 | 0.00 | 0.00 | 0.00 | 94 | 1015.7 |
| 20260507060431 | 40 | 0 | 1.0 | 4.0 | 0.00 | 0.00 | 0.00 | 94 | 1015.6 |
| 20260507055931 | 40 | 162 | 0.0 | 5.0 | 0.00 | 0.00 | 0.00 | 94 | 1015.6 |
| 20260507054931 | 39 | 93 | 2.0 | 5.0 | 0.00 | 0.00 | 0.00 | 94 | 1015.6 |
| 20260507054432 | 38 | 237 | 1.0 | 4.0 | 0.00 | 0.00 | 0.00 | 94 | 1015.6 |
| 20260507053931 | 38 | 237 | 0.0 | 3.0 | 0.00 | 0.00 | 0.00 | 93 | 1015.5 |
| 20260507053431 | 38 | 237 | 0.0 | 4.0 | 0.00 | 0.00 | 0.00 | 93 | 1015.6 |
| 20260507052430 | 38 | 237 | 0.0 | 5.0 | 0.00 | 0.00 | 0.00 | 94 | 1015.5 |
| 20260507051931 | 37 | 237 | 1.0 | 6.0 | 0.00 | 0.00 | 0.00 | 94 | 1015.5 |
| 20260507051431 | 37 | 248 | 2.0 | 6.0 | 0.00 | 0.00 | 0.00 | 93 | 1015.5 |
| 20260507050932 | 36 | 279 | 2.0 | 5.0 | 0.00 | 0.00 | 0.00 | 93 | 1015.5 |
| 20260507045930 | 36 | 21 | 1.0 | 4.0 | 0.00 | 0.00 | 0.00 | 92 | 1015.4 |
| 20260507045429 | 36 | 343 | 0.0 | 4.0 | 0.00 | 0.00 | 0.00 | 92 | 1015.6 |
| 20260507044930 | 36 | 296 | 0.0 | 5.0 | 0.00 | 0.00 | 0.00 | 92 | 1015.6 |
| 20260507043930 | 36 | 295 | 1.0 | 5.0 | 0.00 | 0.00 | 0.00 | 92 | 1015.6 |
| 20260507042930 | 36 | 254 | 1.0 | 4.0 | 0.00 | 0.00 | 0.00 | 92 | 1015.6 |
| 20260507042430 | 36 | 254 | 0.0 | 4.0 | 0.00 | 0.00 | 0.00 | 92 | 1015.6 |
| 20260507041929 | 36 | 254 | 1.0 | 4.0 | 0.00 | 0.00 | 0.00 | 92 | 1015.4 |
| 20260507041429 | 36 | 258 | 0.0 | 4.0 | 0.00 | 0.00 | 0.00 | 92 | 1015.5 |
| 20260507040931 | 36 | 258 | 0.0 | 4.0 | 0.00 | 0.00 | 0.00 | 92 | 1015.5 |
| 20260507035931 | 36 | 176 | 0.0 | 4.0 | 0.00 | 0.00 | 0.00 | 92 | 1015.5 |
| 20260507035430 | 36 | 178 | 0.0 | 4.0 | 0.00 | 0.00 | 0.00 | 92 | 1015.5 |
| 20260507034932 | 36 | 176 | 1.0 | 4.0 | 0.00 | 0.00 | 0.00 | 92 | 1015.4 |
| 20260507034432 | 36 | 176 | 0.0 | 4.0 | 0.00 | 0.00 | 0.00 | 92 | 1015.5 |
| 20260507033431 | 36 | 178 | 1.0 | 5.0 | 0.00 | 0.00 | 0.00 | 92 | 1015.5 |
| 20260507032929 | 36 | 166 | 2.0 | 5.0 | 0.00 | 0.00 | 0.00 | 92 | 1015.5 |
| 20260507031932 | 35 | 169 | 1.0 | 4.0 | 0.00 | 0.00 | 0.00 | 91 | 1015.6 |
| 20260507031431 | 35 | 169 | 0.0 | 4.0 | 0.00 | 0.00 | 0.00 | 91 | 1015.6 |
| 20260507030930 | 35 | 169 | 0.0 | 4.0 | 0.00 | 0.00 | 0.00 | 90 | 1015.6 |
| 20260507030431 | 35 | 169 | 0.0 | 4.0 | 0.00 | 0.00 | 0.00 | 90 | 1015.6 |
| 20260507025930 | 35 | 138 | 1.0 | 3.0 | 0.00 | 0.00 | 0.00 | 90 | 1015.6 |
| 20260507025431 | 35 | 138 | 0.0 | 2.0 | 0.00 | 0.00 | 0.00 | 89 | 1015.7 |
| 20260507024931 | 35 | 138 | 0.0 | 2.0 | 0.00 | 0.00 | 0.00 | 89 | 1015.7 |
| 20260507024431 | 35 | 138 | 0.0 | 4.0 | 0.00 | 0.00 | 0.00 | 89 | 1015.6 |
| 20260507023430 | 36 | 138 | 0.0 | 4.0 | 0.00 | 0.00 | 0.00 | 89 | 1015.7 |
| 20260507022432 | 36 | 138 | 0.0 | 3.0 | 0.00 | 0.00 | 0.00 | 89 | 1015.7 |
| 20260507021931 | 36 | 138 | 0.0 | 4.0 | 0.00 | 0.00 | 0.00 | 89 | 1015.6 |
| 20260507021431 | 36 | 138 | 0.0 | 4.0 | 0.00 | 0.00 | 0.00 | 89 | 1015.7 |
| 20260507020930 | 37 | 138 | 0.0 | 2.0 | 0.00 | 0.00 | 0.00 | 89 | 1015.6 |
| 20260507020430 | 37 | 138 | 0.0 | 2.0 | 0.00 | 0.00 | 0.00 | 89 | 1015.7 |
| 20260507015931 | 37 | 138 | 0.0 | 4.0 | 0.00 | 0.00 | 0.00 | 89 | 1015.7 |
| 20260507015431 | 37 | 138 | 0.0 | 5.0 | 0.00 | 0.00 | 0.00 | 89 | 1015.7 |
| 20260507014929 | 37 | 138 | 2.0 | 5.0 | 0.00 | 0.00 | 0.00 | 89 | 1015.7 |
| 20260507014429 | 37 | 148 | 1.0 | 5.0 | 0.00 | 0.00 | 0.00 | 89 | 1015.7 |
| 20260507013931 | 37 | 173 | 2.0 | 5.0 | 0.00 | 0.00 | 0.00 | 89 | 1015.8 |
| 20260507013430 | 37 | 182 | 0.0 | 4.0 | 0.00 | 0.00 | 0.00 | 89 | 1015.8 |
| 20260507012430 | 37 | 182 | 0.0 | 5.0 | 0.00 | 0.00 | 0.00 | 88 | 1015.8 |
| 20260507011931 | 37 | 182 | 1.0 | 7.0 | 0.00 | 0.00 | 0.00 | 88 | 1015.8 |
| 20260507011431 | 37 | 179 | 1.0 | 7.0 | 0.00 | 0.00 | 0.00 | 88 | 1015.8 |
| 20260507010430 | 37 | 180 | 1.0 | 4.0 | 0.00 | 0.00 | 0.00 | 88 | 1015.8 |
| 20260507005931 | 37 | 178 | 0.0 | 4.0 | 0.00 | 0.00 | 0.00 | 88 | 1015.9 |
| 20260507005431 | 38 | 178 | 2.0 | 5.0 | 0.00 | 0.00 | 0.00 | 88 | 1015.9 |
| 20260507004932 | 38 | 186 | 1.0 | 5.0 | 0.00 | 0.00 | 0.00 | 88 | 1015.8 |
| 20260507003429 | 38 | 178 | 0.0 | 5.0 | 0.00 | 0.00 | 0.00 | 88 | 1015.8 |
| 20260507002930 | 38 | 178 | 0.0 | 8.0 | 0.00 | 0.00 | 0.00 | 88 | 1015.9 |
| 20260507002431 | 38 | 189 | 2.0 | 8.0 | 0.00 | 0.00 | 0.00 | 88 | 1015.8 |
| 20260507001430 | 38 | 172 | 4.0 | 8.0 | 0.00 | 0.00 | 0.00 | 88 | 1015.7 |
| 20260507000931 | 38 | 147 | 3.0 | 9.0 | 0.00 | 0.00 | 0.00 | 87 | 1015.8 |
| 20260507000431 | 38 | 151 | 4.0 | 9.0 | 0.00 | 0.00 | 0.00 | 87 | 1015.9 |
| 20260506235931 | 38 | 192 | 1.0 | 5.0 | 0.00 | 0.00 | 0.00 | 87 | 1015.9 |
| 20260506235429 | 38 | 196 | 2.0 | 6.0 | 0.00 | 0.00 | 0.00 | 87 | 1015.9 |
| 20260506234930 | 38 | 186 | 2.0 | 6.0 | 0.00 | 0.00 | 0.00 | 87 | 1015.9 |
| 20260506234430 | 38 | 190 | 3.0 | 6.0 | 0.00 | 0.00 | 0.00 | 86 | 1015.9 |
| 20260506233929 | 38 | 173 | 2.0 | 9.0 | 0.00 | 0.00 | 0.00 | 86 | 1015.9 |
| 20260506233431 | 38 | 179 | 3.0 | 9.0 | 0.00 | 0.00 | 0.00 | 86 | 1016.2 |
| 20260506232931 | 38 | 180 | 3.0 | 8.0 | 0.00 | 0.00 | 0.00 | 86 | 1016.1 |
| 20260506232430 | 38 | 179 | 4.0 | 8.0 | 0.00 | 0.00 | 0.00 | 86 | 1016.2 |
| 20260506231432 | 38 | 200 | 3.0 | 9.0 | 0.00 | 0.00 | 0.00 | 86 | 1016.1 |
| 20260506230931 | 38 | 206 | 3.0 | 9.0 | 0.00 | 0.00 | 0.00 | 86 | 1016.1 |
| 20260506230430 | 38 | 176 | 4.0 | 7.0 | 0.00 | 0.00 | 0.00 | 86 | 1016.1 |
| 20260506225929 | 38 | 149 | 4.0 | 7.0 | 0.00 | 0.00 | 0.00 | 85 | 1016.0 |
| 20260506224929 | 38 | 165 | 4.0 | 8.0 | 0.00 | 0.00 | 0.00 | 85 | 1016.1 |
| 20260506223930 | 38 | 140 | 3.0 | 7.0 | 0.00 | 0.00 | 0.00 | 85 | 1016.1 |
| 20260506223431 | 38 | 165 | 4.0 | 7.0 | 0.00 | 0.00 | 0.00 | 84 | 1016.0 |
| 20260506222429 | 39 | 151 | 2.0 | 7.0 | 0.00 | 0.00 | 0.00 | 84 | 1016.1 |
| 20260506221929 | 39 | 173 | 3.0 | 7.0 | 0.00 | 0.00 | 0.00 | 83 | 1016.2 |
| 20260506221429 | 39 | 168 | 2.0 | 6.0 | 0.00 | 0.00 | 0.00 | 83 | 1016.1 |
| 20260506220931 | 39 | 147 | 3.0 | 6.0 | 0.00 | 0.00 | 0.00 | 83 | 1016.2 |
| 20260506220431 | 39 | 147 | 1.0 | 6.0 | 0.00 | 0.00 | 0.00 | 82 | 1016.1 |
| 20260506215930 | 39 | 130 | 3.0 | 6.0 | 0.00 | 0.00 | 0.00 | 82 | 1016.1 |
| 20260506215430 | 39 | 137 | 3.0 | 6.0 | 0.00 | 0.00 | 0.00 | 82 | 1016.2 |
| 20260506214931 | 39 | 120 | 2.0 | 7.0 | 0.00 | 0.00 | 0.00 | 82 | 1016.1 |
| 20260506213930 | 39 | 100 | 3.0 | 8.0 | 0.00 | 0.00 | 0.00 | 82 | 1016.1 |
| 20260506213430 | 40 | 118 | 4.0 | 8.0 | 0.00 | 0.00 | 0.00 | 82 | 1016.2 |
| 20260506212930 | 40 | 134 | 4.0 | 8.0 | 0.00 | 0.00 | 0.00 | 81 | 1016.2 |
| 20260506212431 | 40 | 117 | 4.0 | 8.0 | 0.00 | 0.00 | 0.00 | 80 | 1016.2 |
| 20260506211932 | 40 | 121 | 1.0 | 6.0 | 0.00 | 0.00 | 0.00 | 80 | 1016.1 |
| 20260506211431 | 40 | 106 | 2.0 | 6.0 | 0.00 | 0.00 | 0.00 | 80 | 1016.1 |
| 20260506210929 | 40 | 114 | 2.0 | 7.0 | 0.00 | 0.00 | 0.00 | 80 | 1016.1 |
| 20260506210430 | 40 | 131 | 2.0 | 7.0 | 0.00 | 0.00 | 0.00 | 79 | 1016.1 |
| 20260506205930 | 41 | 147 | 3.0 | 7.0 | 0.00 | 0.00 | 0.00 | 79 | 1016.2 |
| 20260506205429 | 41 | 138 | 4.0 | 7.0 | 0.00 | 0.00 | 0.00 | 79 | 1016.0 |
| 20260506204430 | 41 | 166 | 3.0 | 7.0 | 0.00 | 0.00 | 0.00 | 78 | 1016.0 |
| 20260506203431 | 42 | 159 | 1.0 | 5.0 | 0.00 | 0.00 | 0.00 | 78 | 1016.1 |
| 20260506201929 | 43 | 165 | 1.0 | 4.0 | 0.00 | 0.00 | 0.00 | 77 | 1016.1 |
| 20260506201430 | 43 | 166 | 2.0 | 5.0 | 0.00 | 0.00 | 0.00 | 77 | 1016.0 |
| 20260506200930 | 43 | 168 | 2.0 | 5.0 | 0.00 | 0.00 | 0.00 | 76 | 1016.1 |
| 20260506200430 | 44 | 96 | 2.0 | 6.0 | 0.00 | 0.00 | 0.00 | 76 | 1016.0 |
| 20260506194932 | 44 | 89 | 2.0 | 5.0 | 0.00 | 0.00 | 0.00 | 75 | 1015.9 |
| 20260506193930 | 45 | 89 | 1.0 | 5.0 | 0.00 | 0.00 | 0.00 | 74 | 1015.9 |
| 20260506193430 | 45 | 82 | 2.0 | 7.0 | 0.00 | 0.00 | 0.00 | 73 | 1015.9 |
| 20260506192930 | 45 | 80 | 2.0 | 7.0 | 0.00 | 0.00 | 0.00 | 73 | 1016.0 |
| 20260506191930 | 46 | 75 | 3.0 | 7.0 | 0.00 | 0.00 | 0.00 | 72 | 1015.9 |
| 20260506191429 | 46 | 55 | 4.0 | 7.0 | 0.00 | 0.00 | 0.00 | 72 | 1015.8 |
| 20260506190929 | 46 | 73 | 2.0 | 9.0 | 0.00 | 0.00 | 0.00 | 70 | 1015.8 |
| 20260506190429 | 46 | 58 | 2.0 | 9.0 | 0.00 | 0.00 | 0.00 | 70 | 1015.7 |
| 20260506185930 | 46 | 69 | 4.0 | 8.0 | 0.00 | 0.00 | 0.00 | 70 | 1015.8 |
| 20260506185430 | 46 | 51 | 4.0 | 8.0 | 0.00 | 0.00 | 0.00 | 70 | 1015.8 |
| 20260506184930 | 47 | 92 | 4.0 | 7.0 | 0.00 | 0.00 | 0.00 | 69 | 1015.8 |
| 20260506184430 | 47 | 52 | 2.0 | 9.0 | 0.00 | 0.00 | 0.00 | 70 | 1015.7 |
| 20260506183930 | 47 | 38 | 4.0 | 9.0 | 0.00 | 0.00 | 0.00 | 70 | 1015.7 |
| 20260506183431 | 47 | 16 | 4.0 | 9.0 | 0.00 | 0.00 | 0.00 | 68 | 1015.7 |
| 20260506182929 | 47 | 73 | 5.0 | 12.0 | 0.00 | 0.00 | 0.00 | 68 | 1015.7 |
| 20260506182429 | 47 | 58 | 6.0 | 12.0 | 0.00 | 0.00 | 0.00 | 68 | 1015.7 |
| 20260506181929 | 48 | 69 | 2.0 | 11.0 | 0.00 | 0.00 | 0.00 | 68 | 1015.6 |
| 20260506181431 | 48 | 86 | 5.0 | 11.0 | 0.00 | 0.00 | 0.00 | 67 | 1015.6 |
| 20260506180931 | 48 | 45 | 5.0 | 11.0 | 0.00 | 0.00 | 0.00 | 68 | 1015.6 |
| 20260506180430 | 48 | 48 | 4.0 | 11.0 | 0.00 | 0.00 | 0.00 | 67 | 1015.4 |
| 20260506175907 | 48 | 66 | 4.0 | 9.0 | 0.00 | 0.00 | 0.00 | 68 | 1015.5 |
| 20260506174904 | 48 | 61 | 2.0 | 9.0 | 0.00 | 0.00 | 0.00 | 67 | 1015.5 |
| 20260506174403 | 48 | 86 | 4.0 | 12.0 | 0.00 | 0.00 | 0.00 | 67 | 1015.4 |
| 20260506172848 | 48 | 58 | 5.0 | 11.0 | 0.00 | 0.00 | 0.00 | 69 | 1015.5 |
| 20260506172331 | 48 | 71 | 5.0 | 11.0 | 0.00 | 0.00 | 0.00 | 68 | 1015.6 |
| 20260506171832 | 48 | 358 | 5.0 | 11.0 | 0.00 | 0.00 | 0.00 | 67 | 1015.6 |
| 20260506171329 | 48 | 79 | 4.0 | 11.0 | 0.00 | 0.00 | 0.00 | 67 | 1015.7 |
| 20260506170829 | 49 | 39 | 6.0 | 13.0 | 0.00 | 0.00 | 0.00 | 68 | 1015.8 |
| 20260506170346 | 49 | 23 | 6.0 | 13.0 | 0.00 | 0.00 | 0.00 | 68 | 1015.8 |
| 20260506165830 | 49 | 30 | 6.0 | 13.0 | 0.00 | 0.00 | 0.00 | 67 | 1015.8 |
| 20260506165331 | 49 | 37 | 5.0 | 14.0 | 0.00 | 0.00 | 0.00 | 67 | 1015.8 |
| 20260506164830 | 49 | 82 | 6.0 | 14.0 | 0.00 | 0.00 | 0.00 | 67 | 1015.8 |
| 20260506164329 | 49 | 44 | 6.0 | 11.0 | 0.00 | 0.00 | 0.00 | 66 | 1015.7 |
| 20260506163328 | 49 | 0 | 5.0 | 14.0 | 0.00 | 0.00 | 0.00 | 65 | 1015.8 |
| 20260506162830 | 49 | 24 | 7.0 | 14.0 | 0.00 | 0.00 | 0.00 | 66 | 1015.8 |
| 20260506161830 | 49 | 8 | 6.0 | 12.0 | 0.00 | 0.00 | 0.00 | 64 | 1015.8 |
| 20260506161330 | 50 | 38 | 6.0 | 15.0 | 0.00 | 0.00 | 0.00 | 64 | 1015.9 |
| 20260506160828 | 50 | 27 | 9.0 | 15.0 | 0.00 | 0.00 | 0.00 | 66 | 1015.8 |
| 20260506154329 | 50 | 39 | 6.0 | 14.0 | 0.00 | 0.00 | 0.00 | 62 | 1015.9 |
| 20260506153828 | 50 | 1 | 5.0 | 16.0 | 0.00 | 0.00 | 0.00 | 61 | 1015.9 |
| 20260506153329 | 50 | 65 | 5.0 | 16.0 | 0.00 | 0.00 | 0.00 | 61 | 1015.9 |
| 20260506152829 | 51 | 49 | 7.0 | 16.0 | 0.00 | 0.00 | 0.00 | 61 | 1015.9 |
| 20260506152330 | 51 | 20 | 7.0 | 16.0 | 0.00 | 0.00 | 0.00 | 61 | 1015.8 |
| 20260506151830 | 51 | 18 | 8.0 | 14.0 | 0.00 | 0.00 | 0.00 | 60 | 1015.9 |
| 20260506151331 | 49 | 38 | 7.0 | 14.0 | 0.00 | 0.00 | 0.00 | 61 | 1016.0 |
| 20260506150830 | 49 | 0 | 5.0 | 11.0 | 0.00 | 0.00 | 0.00 | 61 | 1015.9 |
| 20260506150330 | 49 | 358 | 7.0 | 11.0 | 0.00 | 0.00 | 0.00 | 61 | 1015.9 |
| 20260506145830 | 49 | 68 | 4.0 | 13.0 | 0.00 | 0.00 | 0.00 | 62 | 1015.8 |
| 20260506145330 | 49 | 10 | 6.0 | 13.0 | 0.00 | 0.00 | 0.00 | 62 | 1015.8 |
| 20260506144329 | 49 | 32 | 8.0 | 13.0 | 0.00 | 0.00 | 0.00 | 62 | 1015.8 |
| 20260506143329 | 50 | 21 | 8.0 | 14.0 | 0.00 | 0.00 | 0.00 | 62 | 1016.0 |
| 20260506142831 | 51 | 55 | 5.0 | 14.0 | 0.00 | 0.00 | 0.00 | 62 | 1015.9 |
| 20260506142330 | 51 | 17 | 5.0 | 15.0 | 0.00 | 0.00 | 0.00 | 62 | 1015.9 |
| 20260506141829 | 51 | 75 | 6.0 | 15.0 | 0.00 | 0.00 | 0.00 | 62 | 1015.9 |
| 20260506141330 | 51 | 21 | 8.0 | 14.0 | 0.00 | 0.00 | 0.00 | 61 | 1015.9 |
| 20260506140828 | 52 | 82 | 5.0 | 13.0 | 0.00 | 0.00 | 0.00 | 62 | 1015.9 |
| 20260506140329 | 51 | 44 | 6.0 | 13.0 | 0.00 | 0.00 | 0.00 | 63 | 1015.9 |
| 20260506135828 | 51 | 47 | 5.0 | 12.0 | 0.00 | 0.00 | 0.00 | 63 | 1016.0 |
| 20260506135330 | 50 | 14 | 5.0 | 14.0 | 0.00 | 0.00 | 0.00 | 63 | 1015.9 |
| 20260506134828 | 50 | 0 | 7.0 | 14.0 | 0.00 | 0.00 | 0.00 | 62 | 1016.0 |
| 20260506134329 | 51 | 10 | 7.0 | 14.0 | 0.00 | 0.00 | 0.00 | 62 | 1015.9 |
| 20260506133830 | 50 | 4 | 6.0 | 12.0 | 0.00 | 0.00 | 0.00 | 63 | 1016.0 |
| 20260506132829 | 50 | 31 | 6.0 | 13.0 | 0.00 | 0.00 | 0.00 | 62 | 1016.0 |
| 20260506132330 | 50 | 61 | 8.0 | 13.0 | 0.00 | 0.00 | 0.00 | 62 | 1016.0 |
| 20260506131829 | 50 | 314 | 6.0 | 14.0 | 0.00 | 0.00 | 0.00 | 65 | 1016.1 |
| 20260506131328 | 50 | 7 | 6.0 | 14.0 | 0.00 | 0.00 | 0.00 | 64 | 1016.1 |
| 20260506130830 | 49 | 23 | 3.0 | 12.0 | 0.00 | 0.00 | 0.00 | 64 | 1016.0 |
| 20260506125831 | 49 | 63 | 6.0 | 12.0 | 0.00 | 0.00 | 0.00 | 62 | 1015.9 |
| 20260506125331 | 49 | 48 | 5.0 | 12.0 | 0.00 | 0.00 | 0.00 | 63 | 1016.0 |
| 20260506124829 | 49 | 25 | 4.0 | 13.0 | 0.00 | 0.00 | 0.00 | 61 | 1016.0 |
| 20260506124328 | 49 | 3 | 8.0 | 13.0 | 0.00 | 0.00 | 0.00 | 60 | 1016.0 |
| 20260506123828 | 49 | 39 | 8.0 | 13.0 | 0.00 | 0.00 | 0.00 | 60 | 1016.0 |
| 20260506123329 | 49 | 25 | 7.0 | 12.0 | 0.00 | 0.00 | 0.00 | 60 | 1016.0 |
| 20260506122829 | 50 | 10 | 6.0 | 12.0 | 0.00 | 0.00 | 0.00 | 58 | 1016.0 |
| 20260506122331 | 50 | 7 | 6.0 | 14.0 | 0.00 | 0.00 | 0.00 | 61 | 1016.0 |
| 20260506121829 | 50 | 54 | 8.0 | 14.0 | 0.00 | 0.00 | 0.00 | 62 | 1016.0 |
| 20260506121329 | 50 | 16 | 6.0 | 12.0 | 0.00 | 0.00 | 0.00 | 62 | 1016.0 |
| 20260506120829 | 50 | 4 | 6.0 | 13.0 | 0.00 | 0.00 | 0.00 | 62 | 1016.0 |
| 20260506120329 | 50 | 0 | 7.0 | 14.0 | 0.00 | 0.00 | 0.00 | 62 | 1016.1 |
| 20260506115828 | 51 | 21 | 6.0 | 14.0 | 0.00 | 0.00 | 0.00 | 60 | 1016.1 |